Miscellaneous Local Product
Issued by NWS Hastings, NE

Home | Current Version | Previous Version | Graphics & Text | Print | Product List | Glossary On
Versions: 1 2 3 4 5 6 7 8 9 10 11 12 13 14 15 16 17 18 19 20 21 22 23 24 25 26 27 28 29 30 31 32 33 34 35 36 37 38 39 40 41 42 43 44 45 46 47 48 49 50
000
AXUS43 KGID 251002
MISGRI

GID CWA HOURLY WEATHER ROUNDUP
NATIONAL WEATHER SERVICE HASTINGS NE
400 AM CST WED FEB 25 2015

NOTE: "FAIR" INDICATES FEW OR NO CLOUDS BELOW 12,000 FEET WITH NO
SIGNIFICANT WEATHER AND/OR OBSTRUCTIONS TO VISIBILITY.

...SOUTH CENTRAL NEBRASKA...

CITY           SKY/WX    TMP DP  RH WIND       PRES   REMARKS
GRAND ISLAND   MOCLDY    34  24  67 SW14      29.72F WCI  25
HASTINGS       PTCLDY    31  22  69 SW9       29.73F WCI  23
KEARNEY        PTCLDY    30  23  74 SW12      29.72F WCI  21
ORD            CLOUDY    36  25  64 SW10      29.66F WCI  28
YORK           PTCLDY    32  25  74 SW12      29.74F WCI  23
AURORA         PTCLDY    33  24  67 SW12      29.72F WCI  25
LEXINGTON      MOCLDY    32  24  71 W5        29.71F WCI  28
HOLDREGE       PTCLDY    31  24  73 SW8       29.72F WCI  24
HEBRON         CLEAR     32  22  67 S8        29.78F WCI  25

...NEBRASKA PANHANDLE...

CITY           SKY/WX    TMP DP  RH WIND       PRES   REMARKS
CHADRON        CLOUDY    42  28  57 W14       29.73R
ALLIANCE       CLOUDY    35  30  82 W9        29.73R WCI  28
SCOTTSBLUFF    LGT RAIN  39  34  82 NW24G32   29.79R WCI  28
SIDNEY         CLOUDY    34  23  64 NW8       29.75F WCI  27

...WESTERN AND NORTH CENTRAL NEBRASKA...

CITY           SKY/WX    TMP DP  RH WIND       PRES   REMARKS
VALENTINE      CLOUDY    43  30  60 W10       29.64S
AINSWORTH      CLOUDY    42  27  55 W13       29.62F
ONEILL         CLOUDY    43  27  54 SW10      29.62S
BROKEN BOW     CLOUDY    39  25  57 W12       29.67F WCI  32
IMPERIAL         N/A     29  21  72 MISG      29.72F
NORTH PLATTE   MOCLDY    26  21  81 W3        29.70F
MCCOOK         PTCLDY    30  23  75 W9        29.74F WCI  22

...EASTERN NEBRASKA...

CITY           SKY/WX    TMP DP  RH WIND       PRES   REMARKS
NORFOLK        CLOUDY    35  23  61 S7        29.68F WCI  29
SO SIOUX CITY  CLOUDY    31  19  61 SE15      29.76F WCI  20
TEKAMAH        CLOUDY    32  21  64 SE8       29.79F WCI  25
COLUMBUS       CLOUDY    37  21  52 S14       29.73F WCI  29
ALBION         CLOUDY    36  23  59 S5        29.68F WCI  32
OMAHA EPPLEY   CLOUDY    31  22  69 S7        29.80F WCI  24
OFFUTT AFB     MOCLDY    30  23  74 SE6       29.79F WCI  24
MILLARD        MOCLDY    32  24  72 SE3       29.79F
LINCOLN        PTCLDY    26  20  77 SE3       29.79F
NEBRASKA CITY  PTCLDY    24  19  80 S7        29.80F WCI  16
BEATRICE       CLEAR     25  21  85 CALM      29.80F
FALLS CITY     PTCLDY    24  18  77 N5        29.82F WCI  18

...NORTHERN KANSAS...

CITY           SKY/WX    TMP DP  RH WIND       PRES   REMARKS
GOODLAND       PTCLDY    25  16  68 W10       29.76F WCI  15
HILL CITY      CLEAR     27  22  81 W5        29.79F WCI  22
NORTON         SUNNY     28  21  74 SW8       29.75  WCI  20
PHILLIPSBURG   CLEAR     28  27  93 SW3       29.78F
SMITH CENTER   CLEAR     25  21  86 S7        29.79F WCI  17
BELOIT         CLEAR     27  19  74 S5        29.81F WCI  21
HAYS           PTCLDY    27  18  69 SW5       29.81F WCI  21
RUSSELL        PTCLDY    25  23  92 SW8       29.81F WCI  16
CONCORDIA      MOCLDY    34  22  61 S10       29.80F WCI  26
SALINA         CLEAR     24  18  77 S7        29.85F WCI  16
TOPEKA         PTCLDY    23  20  88 CALM      29.87S



USA.gov is the U.S. government's official web portal to all federal, state and local government web resources and services.